EW6103 Weather Reports


Display with metric or nautical units.
time (UTC)temp
F
wind
direction
speed
MPH
gust
MPH
rain 1hr
in
rain 24hr
in
rain mn
in
humidity
%
barometer
mb
20260508073011 49 270 4.0 6.0 0.00 0.00 0.00 95 1017.2
20260508072009 49 270 4.0 6.0 0.00 0.00 0.00 95 1017.2
20260508071008 49 270 4.0 6.0 0.00 0.00 0.00 95 1017.2
20260508070012 49 270 4.0 6.0 0.00 0.00 0.00 95 1017.2
20260508065008 49 180 4.0 5.0 0.00 0.00 0.00 94 1017.0
20260508064008 49 270 4.0 6.0 0.00 0.00 0.00 93 1016.9
20260508063010 49 270 4.0 5.0 0.00 0.00 0.00 91 1016.9
20260508060013 49 180 4.0 5.0 0.00 0.00 0.00 89 1016.5
20260508055008 49 180 4.0 6.0 0.00 0.00 0.00 88 1016.3
20260508054013 50 180 4.0 5.0 0.00 0.00 0.00 89 1016.3
20260508053010 49 180 4.0 5.0 0.00 0.00 0.00 89 1016.0
20260508052009 50 180 4.0 5.0 0.00 0.00 0.00 88 1016.1
20260508050011 49 180 4.0 5.0 0.00 0.00 0.00 89 1016.1
20260508045007 49 270 3.0 4.0 0.00 0.00 0.00 89 1016.0
20260508044008 49 270 4.0 4.0 0.00 0.00 0.00 89 1016.1
20260508043010 49 270 4.0 5.0 0.00 0.00 0.00 89 1015.9
20260508042008 49 180 3.0 5.0 0.00 0.00 0.00 89 1015.8
20260508041008 49 180 4.0 4.0 0.00 0.00 0.00 89 1015.8
20260508040012 49 0 4.0 5.0 0.00 0.00 0.00 89 1015.9
20260508035007 49 180 4.0 5.0 0.00 0.00 0.00 89 1015.7
20260508034010 49 270 4.0 6.0 0.00 0.00 0.00 90 1015.6
20260508033010 49 180 4.0 5.0 0.00 0.00 0.00 90 1015.6
20260508032008 49 180 4.0 6.0 0.00 0.00 0.00 89 1015.6
20260508030011 49 270 4.0 4.0 0.00 0.00 0.00 90 1015.7
20260508025006 49 270 4.0 5.0 0.00 0.00 0.00 90 1015.5
20260508024008 49 270 5.0 8.0 0.00 0.00 0.00 90 1015.5
20260508023009 49 270 5.0 8.0 0.00 0.00 0.00 90 1015.6
20260508022007 50 180 4.0 6.0 0.00 0.00 0.00 91 1015.5
20260508021008 50 270 4.0 6.0 0.00 0.00 0.00 91 1015.4
20260508020014 49 180 5.0 8.0 0.00 0.00 0.00 91 1015.3
20260508014008 50 180 4.0 5.0 0.00 0.00 0.00 93 1015.2
20260508013008 50 180 5.0 7.0 0.00 0.00 0.00 92 1015.2
20260508012007 50 225 4.0 8.0 0.00 0.00 0.00 92 1015.1
20260508005008 50 270 4.0 5.0 0.00 0.00 0.00 92 1015.2
20260508003009 51 180 4.0 6.0 0.00 0.00 0.00 91 1015.1
20260508002009 51 180 2.0 4.0 0.00 0.00 0.00 90 1015.0
20260508001009 51 180 0.0 1.0 0.00 0.00 0.00 88 1015.0
20260508000012 51 0 0.0 2.0 0.00 0.00 0.00 88 1015.1
20260507235007 50 180 1.0 3.0 0.00 0.00 0.00 91 1015.0
20260507234008 50 180 2.0 3.0 0.00 0.00 0.00 91 1015.0
20260507232009 51 270 1.0 3.0 0.00 0.00 0.00 88 1015.0
20260507231009 51 270 1.0 3.0 0.00 0.00 0.00 89 1015.2
20260507230016 51 270 2.0 3.0 0.00 0.00 0.00 90 1015.3
20260507225009 51 270 2.0 3.0 0.00 0.00 0.00 91 1015.2
20260507224008 51 270 1.0 2.0 0.00 0.00 0.00 91 1015.1
20260507223009 51 270 0.0 1.0 0.00 0.00 0.00 89 1014.8
20260507222008 51 0 0.0 2.0 0.00 0.00 0.00 88 1014.9
20260507221006 52 0 2.0 3.0 0.00 0.00 0.00 86 1014.6
20260507220014 52 0 1.0 3.0 0.00 0.00 0.00 85 1014.7
20260507215009 53 0 1.0 2.0 0.00 0.00 0.00 84 1014.7
20260507211009 53 0 2.0 5.0 0.00 0.00 0.00 82 1014.4
20260507210012 53 0 2.0 5.0 0.00 0.00 0.00 82 1014.1
20260507205007 54 0 1.0 2.0 0.00 0.00 0.00 83 1014.1
20260507204009 54 180 2.0 4.0 0.00 0.00 0.00 84 1013.9
20260507203007 54 270 2.0 4.0 0.00 0.00 0.00 84 1013.8
20260507201009 54 270 2.0 4.0 0.00 0.00 0.00 85 1013.7
20260507200012 53 270 1.0 3.0 0.00 0.00 0.00 86 1013.6
20260507195006 53 45 0.0 1.0 0.00 0.00 0.00 85 1013.5
20260507194009 52 180 0.0 1.0 0.00 0.00 0.00 86 1013.5
20260507193010 52 270 0.0 2.0 0.00 0.00 0.00 86 1013.5
20260507191012 53 180 2.0 4.0 0.00 0.00 0.00 82 1013.1
20260507190013 54 270 2.0 4.0 0.00 0.00 0.00 80 1012.9
20260507185007 55 270 2.0 4.0 0.00 0.00 0.00 77 1012.7
20260507183008 57 0 2.0 6.0 0.00 0.00 0.00 74 1012.3
20260507182009 58 180 4.0 6.0 0.00 0.00 0.00 72 1012.1
20260507181009 58 180 4.0 9.0 0.00 0.00 0.00 70 1012.1
20260507180019 59 180 7.0 11.0 0.00 0.00 0.00 68 1012.0
20260507175009 61 180 4.0 6.0 0.00 0.00 0.00 64 1011.6
20260507174010 61 180 2.0 4.0 0.00 0.00 0.00 63 1011.3
20260507173014 62 270 5.0 8.0 0.00 0.00 0.00 61 1011.2
20260507172010 62 180 5.0 8.0 0.00 0.00 0.00 59 1011.1
20260507171009 64 180 4.0 7.0 0.00 0.00 0.00 57 1010.9
20260507170012 64 180 4.0 10.0 0.00 0.00 0.00 57 1010.8
20260507165011 64 180 5.0 8.0 0.00 0.00 0.00 57 1010.7
20260507164009 64 270 6.0 11.0 0.00 0.00 0.00 55 1010.6
20260507163012 64 180 9.0 11.0 0.00 0.01 0.00 53 1010.5
20260507162008 65 270 4.0 8.0 0.00 0.01 0.00 55 1010.4
20260507161008 65 180 7.0 12.0 0.00 0.06 0.00 52 1010.4
20260507160014 66 270 7.0 11.0 0.00 0.06 0.00 52 1010.3
20260507155009 66 0 10.0 14.0 0.00 0.06 0.00 51 1010.3
20260507154010 67 270 8.0 11.0 0.00 0.07 0.00 54 1010.3
20260507153010 65 180 6.0 10.0 0.00 0.07 0.00 55 1010.5
20260507151008 64 180 7.0 12.0 0.00 0.07 0.00 56 1010.4
20260507145007 67 180 7.0 10.0 0.00 0.07 0.00 58 1010.3
20260507143009 66 270 9.0 12.0 0.00 0.07 0.00 57 1010.4
20260507142010 67 180 8.0 12.0 0.00 0.07 0.00 54 1010.3
20260507141007 66 180 9.0 14.0 0.00 0.07 0.00 57 1010.2
20260507140013 65 180 8.0 12.0 0.00 0.07 0.00 59 1010.2
20260507135009 68 270 6.0 9.0 0.00 0.10 0.00 57 1010.3
20260507134009 65 180 5.0 9.0 0.00 0.11 0.00 59 1010.4
20260507133011 64 180 9.0 13.0 0.00 0.11 0.00 57 1010.4
20260507132009 65 180 6.0 9.0 0.00 0.11 0.00 58 1010.4
20260507131009 65 270 7.0 10.0 0.00 0.11 0.00 57 1010.3
20260507130012 67 270 5.0 9.0 0.00 0.11 0.00 53 1010.2
20260507125011 69 270 7.0 11.0 0.00 0.11 0.00 54 1010.1
20260507124005 69 180 10.0 13.0 0.00 0.11 0.00 55 1010.1
20260507122006 68 180 6.0 11.0 0.00 0.11 0.00 62 1010.2
20260507120013 70 270 4.0 8.0 0.00 0.11 0.00 53 1009.9
20260507115006 67 270 6.0 11.0 0.00 0.11 0.00 61 1010.3
20260507114008 64 270 6.0 9.0 0.00 0.11 0.00 61 1010.2
20260507113010 65 270 6.0 12.0 0.00 0.11 0.00 59 1010.1
20260507112009 65 225 6.0 11.0 0.00 0.11 0.00 62 1010.1
20260507111009 67 225 7.0 11.0 0.00 0.11 0.00 63 1010.2
20260507110012 64 270 7.0 11.0 0.00 0.11 0.00 64 1010.1
20260507105008 64 180 5.0 11.0 0.00 0.11 0.00 67 1010.2
20260507104009 63 270 5.0 9.0 0.00 0.11 0.00 67 1010.2
20260507103011 64 270 6.0 12.0 0.00 0.11 0.00 68 1010.1
20260507101007 65 180 9.0 13.0 0.00 0.11 0.00 66 1009.9
20260507100014 64 270 5.0 8.0 0.00 0.11 0.00 67 1009.8
20260507095005 65 225 4.0 8.0 0.00 0.11 0.00 64 1009.8
20260507094006 65 180 5.0 10.0 0.00 0.11 0.00 68 1009.9
20260507093007 64 270 6.0 11.0 0.00 0.11 0.00 68 1009.8
20260507092010 62 225 8.0 11.0 0.00 0.11 0.00 73 1010.0
20260507090012 63 270 5.0 7.0 0.00 0.11 0.00 73 1009.7
20260507084006 63 270 4.0 7.0 0.00 0.11 0.00 73 1009.5
20260507082009 61 270 4.0 8.0 0.00 0.11 0.00 74 1009.7
20260507081008 60 270 5.0 10.0 0.00 0.11 0.00 76 1009.6
20260507075009 60 225 6.0 11.0 0.00 0.11 0.00 79 1009.7
20260507074011 59 270 5.0 8.0 0.00 0.11 0.00 79 1009.6